Weather History for KAWM - November, 2013

Change the Weather History Date:

Saturday, November 9, 2013

  Actual Average Record
Temperature  
Mean Temperature 51 °F -  
Max Temperature 60 °F 64 °F 78 °F (1980)
Min Temperature 42 °F 43 °F 19 °F (1991)
Degree Days  
Heating Degree Days 14    
Growing Degree Days 1 (Base 50)    
Moisture  
Dew Point 42 °F    
Average Humidity 74    
Maximum Humidity 86    
Minimum Humidity 51    
Precipitation  
Precipitation 0.00 in - - ()
Sea Level Pressure  
Sea Level Pressure 30.24 in    
Wind  
Wind Speed 3 mph (SSW)    
Max Wind Speed 12 mph    
Max Gust Speed -    
Visibility 10 miles    
Events      
Averages and records for this station are not official NWS values.
T = Trace of Precipitation, MM = Missing Value Source: NWS Daily Summary

Daily Weather History Graph

Daily Weather History Graph

Search for Another Location

Airport or City:

Trip Planner

Search our weather history database for the weather conditions in past years. The results will help you decide how hot, cold, wet, or windy it might be!

Date:

Astronomy

Nov. 09, 2013 Rise Set
Actual Time 6:30 AM CST 4:59 PM CST
Civil Twilight 6:03 AM CST 5:25 PM CST
Nautical Twilight 5:33 AM CST 5:56 PM CST
Astronomical Twilight 5:03 AM CST 6:25 PM CST
Moon 12:09 PM CST (11/9) 11:26 PM CST (11/9)
Length of Visible Light 11h 22m
Length of Day
10h 29m
Waxing Crescent, 44% of the Moon is Illuminated
Nov 9
Waxing Crescent
Nov 9
First Quarter
Nov 17
Full
Nov 25
Last Quarter
Dec 2
New

Hourly Weather History & Observations

Time (CST) Temp. Windchill Dew Point Humidity Pressure Visibility Wind Dir Wind Speed Gust Speed Precip Events Conditions
12:53 AM 42.1 °F - 37.9 °F 85% 30.22 in 10.0 mi Calm Calm - N/A   Clear
1:53 AM 42.1 °F 39.2 °F 37.9 °F 85% 30.22 in 10.0 mi South 4.6 mph - N/A   Clear
2:53 AM 43.0 °F - 39.0 °F 86% 30.21 in 10.0 mi Calm Calm - N/A   Clear
3:53 AM 44.1 °F - 39.9 °F 85% 30.21 in 10.0 mi Calm Calm - N/A   Clear
4:53 AM 45.0 °F - 41.0 °F 86% 30.22 in 10.0 mi Calm Calm - N/A   Clear
5:53 AM 46.9 °F - 41.0 °F 80% 30.25 in 10.0 mi SSW 3.5 mph - N/A   Clear
6:53 AM 46.9 °F - 42.1 °F 83% 30.26 in 10.0 mi South 5.8 mph - N/A   Partly Cloudy
7:53 AM 48.9 °F - 43.0 °F 80% 30.27 in 10.0 mi South 5.8 mph - N/A   Mostly Cloudy
8:53 AM 51.1 °F - 43.0 °F 74% 30.29 in 10.0 mi South 5.8 mph - N/A   Mostly Cloudy
9:53 AM 53.1 °F - 43.0 °F 69% 30.28 in 10.0 mi South 5.8 mph - N/A   Overcast
10:53 AM 54.0 °F - 43.0 °F 66% 30.27 in 10.0 mi SSW 6.9 mph - N/A   Overcast
11:53 AM 55.9 °F - 42.1 °F 60% 30.23 in 10.0 mi SSW 9.2 mph - N/A   Overcast
12:53 PM 57.9 °F - 42.1 °F 56% 30.22 in 10.0 mi SSW 9.2 mph - N/A   Mostly Cloudy
1:53 PM 60.1 °F - 43.0 °F 53% 30.20 in 10.0 mi South 11.5 mph - N/A   Mostly Cloudy
2:53 PM 59.0 °F - 43.0 °F 55% 30.21 in 10.0 mi SSW 6.9 mph - N/A   Overcast
3:53 PM 59.0 °F - 41.0 °F 51% 30.21 in 10.0 mi SSW 9.2 mph - N/A   Overcast
4:53 PM 57.0 °F - 41.0 °F 55% 30.22 in 10.0 mi Calm Calm - N/A   Overcast
5:53 PM 55.0 °F - 43.0 °F 64% 30.23 in 10.0 mi Calm Calm - N/A   Partly Cloudy
6:53 PM 51.1 °F - 43.0 °F 74% 30.25 in 10.0 mi Calm Calm - N/A   Clear
7:53 PM 48.0 °F - 43.0 °F 83% 30.25 in 10.0 mi South 6.9 mph - N/A   Clear
8:53 PM 50.0 °F - 44.1 °F 80% 30.26 in 10.0 mi South 3.5 mph - N/A   Clear
9:53 PM 50.0 °F - 45.0 °F 83% 30.27 in 10.0 mi SSW 5.8 mph - N/A   Scattered Clouds
10:53 PM 48.9 °F - 45.0 °F 86% 30.26 in 10.0 mi South 3.5 mph - N/A   Overcast
11:53 PM 48.9 °F - 45.0 °F 86% 30.26 in 10.0 mi SSW 3.5 mph - N/A   Clear